TimeAST,TemperatureF,Dew PointF,Humidity,Sea Level PressureIn,VisibilityMPH,Wind Direction,Wind SpeedMPH,Gust SpeedMPH,PrecipitationIn,Events,Conditions,WindDirDegrees,DateUTC
12:00 AM,82.4,77.0,84,29.89,-9999.0,North,-9999.0,-,N/A,,Unknown,0,2012-11-23 04:00:00
1:00 AM,82.4,75.2,79,29.86,-9999.0,North,-9999.0,-,N/A,,Partly Cloudy,0,2012-11-23 05:00:00
2:00 AM,82,75,74,,,ENE,6.9,,,,Clear,70,2012-11-23 06:00:00
2:00 AM,82.4,75.2,79,29.86,-9999.0,North,-9999.0,-,N/A,,Unknown,0,2012-11-23 06:00:00
3:00 AM,82.4,75.2,79,29.83,-9999.0,North,-9999.0,-,N/A,,Unknown,0,2012-11-23 07:00:00
4:00 AM,82.4,75.2,79,29.83,-9999.0,North,-9999.0,-,N/A,,Unknown,0,2012-11-23 08:00:00
5:00 AM,82,75,75,,,ENE,8.1,,,,Clear,70,2012-11-23 09:00:00
5:00 AM,82.4,75.2,79,29.86,-9999.0,North,-9999.0,-,N/A,,Unknown,0,2012-11-23 09:00:00
6:00 AM,80.6,75.2,84,29.86,-9999.0,North,-9999.0,-,N/A,,Unknown,0,2012-11-23 10:00:00
7:00 AM,82.4,75.2,79,29.89,-9999.0,ENE,8.1,-,N/A,,Unknown,70,2012-11-23 11:00:00
8:00 AM,85,77,71,29.91,22,East,12.7,,,,Scattered Clouds,100,2012-11-23 12:00:00
8:00 AM,86.0,77.0,74,29.89,6.2,East,12.7,-,N/A,,Partly Cloudy,100,2012-11-23 12:00:00
9:00 AM,87.8,77.0,70,29.92,6.2,East,15.0,-,N/A,,Scattered Clouds,100,2012-11-23 13:00:00
10:00 AM,87.8,77.0,70,29.92,6.2,East,16.1,-,N/A,,Scattered Clouds,100,2012-11-23 14:00:00
11:00 AM,89.6,78.8,70,29.92,6.2,ENE,8.1,-,N/A,,Scattered Clouds,70,2012-11-23 15:00:00
1:00 PM,89.6,77.0,66,29.86,6.2,ESE,15.0,-,N/A,,Scattered Clouds,120,2012-11-23 17:00:00
2:00 PM,89.6,77.0,66,29.83,-9999.0,North,-9999.0,-,N/A,,Scattered Clouds,0,2012-11-23 18:00:00
3:00 PM,87.8,77.0,70,29.83,-9999.0,North,-9999.0,-,N/A,,Unknown,0,2012-11-23 19:00:00
4:00 PM,87.8,78.8,75,29.80,6.2,SE,12.7,-,N/A,,Scattered Clouds,130,2012-11-23 20:00:00
5:00 PM,86,77,67,,6,East,13.8,,,,Clear,100,2012-11-23 21:00:00
5:00 PM,86.0,77.0,74,29.80,6.2,East,13.8,-,N/A,,Scattered Clouds,100,2012-11-23 21:00:00
6:00 PM,84.2,75.2,74,29.83,6.2,East,12.7,-,N/A,,Scattered Clouds,100,2012-11-23 22:00:00
7:00 PM,84.2,77.0,79,29.83,-9999.0,North,-9999.0,-,N/A,,Unknown,0,2012-11-23 23:00:00
8:00 PM,84,79,80,29.86,16,East,10.4,,,,Scattered Clouds,100,2012-11-24 00:00:00
8:00 PM,82.4,75.2,79,29.86,6.2,East,11.5,-,N/A,,Partly Cloudy,90,2012-11-24 00:00:00
9:00 PM,82.4,75.2,79,29.86,-9999.0,North,-9999.0,-,N/A,,Unknown,0,2012-11-24 01:00:00
11:00 PM,82.4,75.2,79,29.89,-9999.0,East,12.7,-,N/A,,Unknown,80,2012-11-24 03:00:00